Location: Canyam�s
(41.5996°N, 2.4450°E)
Time: 20:17:29
(UTC+00:00)

ATLAS CENTAUR R/B - Pass Details

Date: 08 October 2020
Orbit: 479 x 667 km, 64.7° (Epoch: 12 October)

Event Time Altitude Azimuth Distance (km) Brightness Sun altitude
Rises 18:44:54 0° 339° (NNW) 2,542 5.1 -16.7°
Reaches altitude 10° 18:47:27 10° 357° (N) 1,664 3.9 -17.2°
Enters shadow 18:49:41 20° 33° (NNE) 1,194 2.8 -17.6°
